This demonstration page uses our WeatherBlox Daily Observations layout. Learn more.

Left ArrowRight Arrow

Hourly Observations for June 19, 2021

Temp ( °F °C ) Dew Point ( °F °C ) Humidity (%) Winds ( mph kmh ) Pressure ( in mb ) Visibility ( mi km ) Precip ( " mm )
12:59 am 00:59 Partly Cloudy 75 23.9 59 15 58 58 S 13 20 29.99 1016 10 16 0.00 0.00
1:59 am 01:59 Partly Cloudy 75 23.9 60 15.6 60 60 SSW 10 17 29.97 1015 10 16 0.00 0.00
2:59 am 02:59 Mostly Clear 74 23.3 60 15.6 62 62 SSW 13 20 29.93 1014 10 16 0.00 0.00
3:59 am 03:59 Mostly Clear 74 23.3 62 16.7 67 67 SSW 12 19 29.93 1014 10 16 0.00 0.00
4:59 am 04:59 Mostly Clear 75 23.9 63 17.2 66 66 SW 9 15 29.93 1013 10 16 0.00 0.00
5:59 am 05:59 Mostly Sunny 74 23.3 63 17.2 69 69 SSW 8 13 29.91 1013 10 16 0.00 0.00
6:59 am 06:59 Mostly Cloudy 75 23.9 64 17.8 69 69 SW 12 19 29.91 1013 9 14 0.00 0.00
7:59 am 07:59 Mostly Cloudy 76 24.4 65 18.3 69 69 SSW 13 20 29.91 1013 9 14 0.00 0.00
8:59 am 08:59 Mostly Cloudy 79 26.1 66 18.9 65 65 SW 10 17 29.93 1013 9 14 0.00 0.00
9:59 am 09:59 Partly Cloudy 82 27.8 67 19.4 60 60 WSW 13 20 29.91 1013 9 14 0.00 0.00
10:59 am 10:59 Partly Cloudy 85 29.4 67 19.4 55 55 WSW 12 19 29.92 1013 9 14 0.00 0.00
11:59 am 11:59 Partly Cloudy 88 31.1 66 18.9 48 48 W 12 19 29.92 1013 9 14 0.00 0.00
12:59 pm 12:59 Sunny 90 32.2 66 18.9 45 45 W 10 17 29.90 1012 10 16 0.00 0.00
1:59 pm 13:59 Partly Cloudy 90 32.2 67 19.4 47 47 W 10 17 29.90 1012 9 14 0.00 0.00
2:59 pm 14:59 Partly Cloudy 91 32.8 68 20 47 47 WSW 9 15 29.88 1012 9 14 0.00 0.00
3:59 pm 15:59 Mostly Cloudy 91 32.8 68 20 47 47 W 12 19 29.86 1011 9 14 0.00 0.00
4:59 pm 16:59 Mostly Cloudy 91 32.8 67 19.4 45 45 WSW 8 13 29.85 1011 9 14 0.00 0.00
5:59 pm 17:59 Mostly Cloudy 89 31.7 67 19.4 48 48 SW 9 15 29.83 1010 9 14 0.00 0.00
6:59 pm 18:59 Cloudy 89 31.7 66 18.9 47 47 SW 10 17 29.85 1011 9 14 0.00 0.00
7:59 pm 19:59 Mostly Cloudy 88 31.1 66 18.9 48 48 SW 6 9 29.85 1011 10 16 0.00 0.00
8:59 pm 20:59 Cloudy 84 28.9 67 19.4 57 57 SSW 5 7 29.86 1011 10 16 0.00 0.00
9:59 pm 21:59 Mostly Cloudy 82 27.8 67 19.4 60 60 SSW 5 7 29.87 1012 10 16 0.00 0.00
10:59 pm 22:59 Mostly Cloudy 84 28.9 67 19.4 57 57 SSW 7 11 29.87 1012 9 14 0.00 0.00
11:59 pm 23:59 Mostly Cloudy 82 27.8 69 20.6 65 65 SSW 9 15 29.86 1011 9 14 0.00 0.00

Powered by AerisWeather